Weather in Rucphen

Netherlands     51°31′58″N   4°33′35″E
temp.,
°C
wind,
m/s
gust,
m/s
humid.,
%
clouds,
%
prec.,
mm/h
press.,
hPa
HPBL,
m
20 april, tue
tue2023:00+8sse11875 0.0 101910
02:00+7ese118914 0.0 101910
05:00+8ene228497 0.0 101826
08:00+8e2283100 0.0 101888
11:00+12ese227195 0.0 1019441
14:00+16ene124861 0.0 10181814
17:00+16nnw2148100 0.0 1016803
20:00+12nne4769100 0.0 1017242
21 april, wed
wed2123:00+11nne367895 0.0 1017133
02:00+11nne2468100 0.0 1017105
05:00+10nne3671100 0.0 1017147
08:00+10nne3674100 0.0 1018187
11:00+11nne566096 0.0 1019481
14:00+14nne555777 0.1 10191323
17:00+13nne675686 0.4 10191471
20:00+9nne795911 0.4 1021839
22 april, thu
thu2223:00+5nne5116897 0.0 1024541
02:00+2nne35725 0.0 1024100
05:00+2nne227410 0.0 102532
08:00+4n2572100 0.0 1025168
11:00+9nne4655100 0.0 10261419
14:00+11n554847 0.0 10261553
17:00+12n66465 0.0 10261565
20:00+8n58625 0.0 1027437
23 april, fri
fri2323:00+5n37780 0.0 1028152
02:00+3nne22890 0.0 102930
05:00+3nne22920 0.0 102917
08:00+5n12850 0.0 103093
11:00+10nne33605 0.0 1030996
14:00+13nne344720 0.0 10291462
17:00+14nne33445 0.0 10281596
20:00+11nne58637 0.0 1029292
24 april, sat
sat2423:00+6ne487818 0.0 1030165
02:00+3ne358821 0.0 102996
05:00+3ne3590100 0.0 102987
08:00+5ene3582100 0.0 1029161
11:00+10ene4662100 0.0 1029758
14:00+14ne565341 0.0 10281387
17:00+15ne564946 0.0 10271689
20:00+11ne476781 0.0 1028274